CW7400 Weather Reports


time (UTC)temp
C
wind
direction
speed
KPH
gust
KPH
rain 1hr
cm
rain 24hr
cm
rain mn
cm
humidity
%
barometer
mb
20260503010004 10 0 0.0 0.0 0.00 0.23 0.23 88 1013.5
20260503005403 10 0 0.0 0.0 0.00 0.23 0.23 88 1013.4
20260503004503 11 0 0.0 0.0 0.00 0.23 0.23 87 1013.3
20260503003603 11 0 0.0 0.0 0.00 0.23 0.23 87 1013.1
20260503002703 11 0 0.0 0.0 0.00 0.23 0.23 85 1013.0
20260503001824 12 0 0.0 0.0 0.00 0.23 0.23 85 1012.9
20260503000903 12 0 0.0 0.0 0.00 0.23 0.23 83 1012.8
20260503000004 12 0 0.0 0.0 0.00 0.23 0.23 83 1012.6
20260502235403 12 0 0.0 0.0 0.00 0.23 0.23 83 1012.6
20260502234503 13 0 0.0 0.0 0.00 0.23 0.23 82 1012.4
20260502233603 13 0 0.0 0.0 0.00 0.23 0.23 82 1012.2
20260502232703 13 0 0.0 0.0 0.00 0.23 0.23 82 1012.1
20260502231824 13 0 0.0 0.0 0.00 0.23 0.23 82 1012.2
20260502230903 13 0 0.0 0.0 0.00 0.23 0.23 82 1012.1
20260502230004 13 0 0.0 0.0 0.00 0.23 0.23 82 1012.1
20260502225403 13 0 0.0 0.0 0.00 0.23 0.23 82 1012.0
20260502224524 13 0 0.0 0.0 0.00 0.23 0.23 81 1012.0
20260502223603 13 0 0.0 0.0 0.00 0.23 0.23 81 1012.0
20260502222724 13 0 0.0 0.0 0.00 0.23 0.23 80 1012.0
20260502221803 13 0 0.0 0.0 0.00 0.23 0.23 81 1012.0
20260502220903 13 0 0.0 0.0 0.00 0.23 0.23 79 1011.9
20260502220004 13 0 0.0 3.2 0.00 0.23 0.23 79 1011.8
20260502215403 13 0 0.0 3.2 0.00 0.23 0.23 78 1011.7
20260502214503 13 0 0.0 0.0 0.00 0.23 0.23 78 1011.8
20260502213603 14 0 0.0 0.0 0.00 0.23 0.23 78 1011.7
20260502212703 14 0 0.0 0.0 0.00 0.23 0.23 78 1011.6
20260502211824 14 0 0.0 0.0 0.00 0.23 0.23 76 1011.8
20260502210903 14 0 0.0 6.4 0.00 0.23 0.23 76 1011.7
20260502210024 14 0 0.0 0.0 0.00 0.23 0.23 76 1011.7
20260502205424 14 0 0.0 3.2 0.00 0.23 0.23 75 1011.7
20260502204503 14 0 0.0 3.2 0.00 0.23 0.23 76 1011.7
20260502203603 14 0 0.0 3.2 0.00 0.23 0.23 75 1011.8
20260502202703 14 0 0.0 3.2 0.00 0.23 0.23 75 1011.8
20260502201803 14 0 0.0 3.2 0.00 0.23 0.23 74 1011.9
20260502200903 15 0 0.0 6.4 0.00 0.23 0.23 75 1011.7
20260502200003 15 0 0.0 9.7 0.00 0.23 0.23 74 1011.6
20260502195424 15 0 0.0 6.4 0.00 0.23 0.23 74 1011.7
20260502194503 15 0 0.0 3.2 0.00 0.23 0.23 74 1011.9
20260502193603 15 0 0.0 6.4 0.00 0.23 0.23 74 1012.0
20260502192703 15 0 0.0 3.2 0.00 0.23 0.23 75 1012.1
20260502191803 15 0 0.0 6.4 0.00 0.23 0.23 76 1012.3
20260502190903 15 0 0.0 9.7 0.00 0.23 0.23 74 1012.2
20260502190004 15 0 0.0 9.7 0.00 0.23 0.23 76 1012.3
20260502185424 15 0 0.0 6.4 0.00 0.23 0.23 77 1012.4
20260502184503 15 0 0.0 6.4 0.00 0.23 0.23 75 1012.4
20260502183603 15 0 0.0 0.0 0.00 0.23 0.23 75 1012.6
20260502182703 15 0 0.0 6.4 0.00 0.23 0.23 78 1012.6
20260502181803 15 0 0.0 3.2 0.00 0.23 0.23 76 1012.6
20260502180903 14 0 0.0 6.4 0.00 0.23 0.23 79 1012.8
20260502163603 12 0 0.0 6.4 0.03 0.23 0.23 86 1013.7
20260502162724 12 0 0.0 6.4 0.03 0.23 0.23 85 1013.9
20260502161803 12 0 0.0 6.4 0.03 0.23 0.23 85 1013.9
20260502160903 12 0 0.0 9.7 0.03 0.23 0.23 86 1014.1
20260502151803 12 0 0.0 6.4 0.03 0.20 0.20 86 1013.7
20260502150903 12 0 0.0 6.4 0.03 0.20 0.20 87 1014.0
20260502123625 11 0 0.0 3.2 0.00 0.03 0.03 85 1013.2
20260502122704 11 0 0.0 3.2 0.00 0.03 0.03 85 1013.0
20260502121804 11 0 0.0 0.0 0.03 0.03 0.03 86 1012.7
20260502120925 11 0 0.0 0.0 0.03 0.03 0.03 86 1012.7
20260502115404 11 0 0.0 3.2 0.03 0.03 0.03 86 1012.8
20260502114504 11 0 0.0 0.0 0.03 0.03 0.03 86 1012.8
20260502113604 11 0 0.0 3.2 0.03 0.03 0.03 86 1012.9
20260502112704 11 0 0.0 0.0 0.03 0.03 0.03 86 1012.8
20260502111825 11 0 0.0 0.0 0.00 0.00 0.00 86 1012.8
20260502110904 11 0 0.0 0.0 0.00 0.00 0.00 86 1013.0
20260502110026 11 0 0.0 0.0 0.00 0.00 0.00 86 1013.1
20260502105404 11 0 0.0 0.0 0.00 0.00 0.00 87 1013.1
20260502104504 11 0 0.0 0.0 0.00 0.00 0.00 87 1013.1
20260502103604 11 0 0.0 0.0 0.00 0.00 0.00 87 1013.1
20260502102704 11 0 0.0 0.0 0.00 0.00 0.00 87 1013.1
20260502101804 11 0 0.0 0.0 0.00 0.00 0.00 87 1013.2
20260502100904 11 0 0.0 0.0 0.00 0.00 0.00 87 1013.1
20260502090904 11 0 0.0 0.0 0.00 0.00 0.00 88 1013.2
20260502070925 11 0 0.0 0.0 0.00 0.00 0.00 89 1012.0
20260502070005 11 0 0.0 0.0 0.00 0.00 0.00 89 1012.0
20260502065425 11 0 0.0 0.0 0.00 0.00 0.00 89 1012.1
20260502064525 11 0 0.0 0.0 0.00 0.00 0.00 89 1012.1
20260502063604 11 0 0.0 0.0 0.00 0.00 0.00 89 1012.2
20260502062704 11 0 0.0 0.0 0.00 0.00 0.00 89 1012.3
20260502061804 11 0 0.0 0.0 0.00 0.00 0.00 88 1012.3
20260502060904 11 0 0.0 0.0 0.00 0.00 0.00 88 1012.3
20260502060004 11 0 0.0 0.0 0.00 0.00 0.00 88 1012.5
20260502055404 11 0 0.0 0.0 0.00 0.00 0.00 88 1012.4
20260502054504 11 0 0.0 0.0 0.00 0.00 0.00 88 1012.5
20260502053604 11 0 0.0 0.0 0.00 0.00 0.00 88 1012.7
20260502052725 11 0 0.0 0.0 0.00 0.00 0.00 88 1012.6
20260502051825 11 0 0.0 0.0 0.00 0.00 0.00 87 1012.8
20260502050925 11 0 0.0 0.0 0.00 0.00 0.00 87 1012.9
20260502050004 11 0 0.0 0.0 0.00 0.00 0.00 87 1013.0
20260502045404 11 0 0.0 0.0 0.00 0.00 0.00 87 1013.1
20260502044504 12 0 0.0 0.0 0.00 0.00 0.00 86 1013.1
20260502043604 12 0 0.0 0.0 0.00 0.00 0.00 86 1013.1
20260502042725 12 0 0.0 0.0 0.00 0.00 0.00 86 1013.2
20260502041825 12 0 0.0 0.0 0.00 0.00 0.00 87 1013.2
20260502040904 12 0 0.0 0.0 0.00 0.00 0.00 86 1013.2
20260502040005 12 0 0.0 0.0 0.00 0.00 0.00 86 1013.3
20260502035404 12 0 0.0 0.0 0.00 0.00 0.00 86 1013.3
20260502034504 12 0 0.0 0.0 0.00 0.00 0.00 86 1013.4
20260502033604 12 0 0.0 0.0 0.00 0.00 0.00 85 1013.3
20260502032704 12 0 0.0 0.0 0.00 0.00 0.00 85 1013.3
20260502031804 12 0 0.0 0.0 0.00 0.00 0.00 85 1013.3
20260502030904 12 0 0.0 0.0 0.00 0.00 0.00 85 1013.4
20260502030004 12 0 0.0 0.0 0.00 0.00 0.00 84 1013.5
20260502025404 12 0 0.0 0.0 0.00 0.00 0.00 84 1013.6
20260502024504 12 0 0.0 0.0 0.00 0.00 0.00 84 1013.6
20260502023604 12 0 0.0 0.0 0.00 0.00 0.00 84 1013.5
20260502022704 12 0 0.0 3.2 0.00 0.00 0.00 83 1013.5
20260502021804 12 0 0.0 0.0 0.00 0.00 0.00 83 1013.7
20260502020925 12 0 0.0 0.0 0.00 0.00 0.00 83 1013.7
20260502020004 12 0 0.0 0.0 0.00 0.00 0.00 83 1013.6
20260502015404 12 0 0.0 0.0 0.00 0.00 0.00 84 1013.7
20260502014504 12 0 0.0 3.2 0.00 0.00 0.00 83 1013.6
20260502013604 12 0 0.0 0.0 0.00 0.00 0.00 83 1013.5
20260502012704 12 0 0.0 3.2 0.00 0.00 0.00 83 1013.4
20260502011803 12 0 0.0 3.2 0.00 0.00 0.00 83 1013.5
20260502010904 12 0 0.0 0.0 0.00 0.00 0.00 83 1013.6